Regional Weather Roundup
Issued by NWS

Home | Current Version | Previous Version | Text Only | Print | Product List | Glossary On
Versions: 1 2 3 4 5 6 7 8 9 10 11 12 13 14 15 16 17 18 19 20 21 22 23 24 25 26 27 28 29 30 31 32 33 34 35 36 37 38 39 40 41 42 43 44 45 46 47 48 49 50
000
ASUS46 KPQR 032310
RWROR

OREGON REGIONAL WEATHER ROUNDUP
NATIONAL WEATHER SERVICE PORTLAND OR
400 PM PDT MON AUG 03 2015

NOTE: "FAIR" INDICATES FEW OR NO CLOUDS BELOW 12,000 FEET WITH
NO SIGNIFICANT WEATHER AND/OR OBSTRUCTIONS TO VISIBILITY.

ORZ001>013-040000-
NORTHWEST OREGON


CITY           SKY/WX    TMP DP  RH WIND       PRES   REMARKS
ASTORIA        CLOUDY    69  57  65 NW14      29.98F
NEWPORT        PTSUNNY   63  55  77 N18G29    30.00S
PORTLAND       PTSUNNY   84  54  35 W9        29.90F
VANCOUVER WA   PTSUNNY   83  52  34 W7        29.89F
SCAPPOOSE      PTSUNNY   82  57  42 E8        29.90S
HILLSBORO      CLOUDY    82  52  35 N6        29.90F
AURORA         CLOUDY    80  51  36 E6        29.91F
MCMINNVILLE    CLOUDY    81  54  39 SW5       29.91F
SALEM          CLOUDY    84  49  29 VRB5      29.90S
CORVALLIS      PTSUNNY   88  54  31 NW9       29.91F
EUGENE         PTSUNNY   87  48  25 N10       29.89F
$$

ORZ021-028-040000-
SOUTHWEST OREGON


CITY           SKY/WX    TMP DP  RH WIND       PRES   REMARKS
NORTH BEND     PTSUNNY   64  57  77 N15G21    29.99S
BROOKINGS      CLOUDY    63  60  90 NW6       30.00S
ROSEBURG       PTSUNNY   85  57  38 CALM      29.88F
SEXTON SUMMIT  CLOUDY    76  58  53 VRB5      30.02F HAZE
MEDFORD        PTSUNNY   95  53  24 W14       29.83F HAZE    HX  92
$$

ORZ014>016-041-040000-
COLUMBIA GORGE


CITY           SKY/WX    TMP DP  RH WIND       PRES   REMARKS
TROUTDALE      PTSUNNY   84  51  31 CALM      29.88F
THE DALLES     CLOUDY    83  51  33 NW21G29   29.81F
$$

ORZ029>031-041-044-049-050-061>064-502-503-505>511-040000-
EASTERN OREGON


CITY           SKY/WX    TMP DP  RH WIND       PRES   REMARKS
REDMOND        MOSUNNY   87  47  24 N10       29.93F
BEND           MOSUNNY   84  45  24 N6        29.96F
PRINEVILLE     MOSUNNY   86  43  22 NW9       29.94F
KLAMATH FALLS  PTSUNNY   82  48  30 SE7       29.99F
LAKEVIEW       SUNNY     82  45  26 W7        30.02F
HERMISTON      CLOUDY    86  46  24 W6        29.80F
PENDLETON      CLOUDY    84  42  22 NW12      29.86S
JOHN DAY       CLOUDY    82  43  24 N8        30.00S
MEACHAM        CLOUDY    74  42  31 CALM      30.01F
LA GRANDE      CLOUDY    81  37  21 NW15G22   29.93R
BAKER CITY     CLOUDY    76  52  43 NW6       29.96
BURNS          PTSUNNY   85  41  21 VRB7      29.99F
ROME             N/A     91  37  15 S13G20    29.94F
ONTARIO        CLOUDY    92  48  22 VRB3      29.85F
$$


USA.gov is the U.S. government's official web portal to all federal, state and local government web resources and services.